Printer-friendly version

IAU Minor Planet Center

Minor Planet Center

MPEC 2005-H31 : COMET P/2005 E1 (TUBBIOLO)

The following Minor Planet Electronic Circular may be linked-to from your own Web pages, but must not otherwise be redistributed electronically.


Read MPEC 2005-H30 Read MPEC 2005-H32


M.P.E.C. 2005-H31                                Issued 2005 Apr. 26, 14:33 UT

     The Minor Planet Electronic Circulars contain information on unusual
         minor planets and routine data on comets.  They are published
   on behalf of Commission 20 of the International Astronomical Union by the
          Minor Planet Center, Smithsonian Astrophysical Observatory,
                          Cambridge, MA 02138, U.S.A.

                  Supported in part by the Brinson Foundation
             Prepared using the Tamkin Foundation Computer Network

                              MPC@CFA.HARVARD.EDU
          URL http://cfa-www.harvard.edu/iau/mpc.html  ISSN 1523-6714

                          COMET P/2005 E1 (TUBBIOLO)

Observations:
    PK05E010  C2005 04 04.53220 11 33 37.88 +03 43 26.1          19.7 T EH031D74
    PK05E010  C2005 04 04.54411 11 33 37.56 +03 43 27.5          19.8 T EH031D74
    PK05E010  C2005 04 04.55139 11 33 37.42 +03 43 28.5          19.7 T EH031D74
    PK05E010  C2005 04 04.55867 11 33 37.21 +03 43 29.1          19.6 T EH031D74
    PK05E010   2005 04 05.60243 11 33 11.46 +03 45 12.5                 EH031372

Observer details:
372 Geisei.  Observer T. Seki.  0.60-m f/3.5 reflector.
D74 Nakagawa.  Observers H. Hori, H. Maeno.  1.13-m f/6.75 reflector + CCD.

Orbital elements:
    P/2005 E1 (Tubbiolo)
T 2005 Mar.  9.4775 TT                                  MPC
q   4.441010             (2000.0)            P               Q
n   0.0507042      Peri.  169.6854      -0.9946864      -0.1027177
a   7.229476       Node     4.4366      +0.0869202      -0.8739721
e   0.385708       Incl.    5.1408      +0.0551711      -0.4749967
P  19.4
From 51 observations 2005 Mar. 3-Apr. 5.

Ephemeris:
    P/2005 E1 (Tubbiolo)
Date    TT    R. A. (2000) Decl.     Delta      r     Elong.  Phase   m1    m2
2005 04 20    11 28.35   +04 02.1    3.618    4.446   141.2     8.1  19.3
2005 04 30    11 26.39   +04 05.0    3.723    4.449   131.0     9.8  19.3
2005 05 10    11 25.73   +04 00.0    3.844    4.452   121.2    11.2  19.4
2005 05 20    11 26.41   +03 47.0    3.980    4.456   111.8    12.2  19.5
2005 05 30    11 28.40   +03 26.1    4.125    4.460   102.8    12.8  19.6
2005 06 09    11 31.62   +02 57.9    4.276    4.465    94.1    13.1  19.7
2005 06 19    11 35.96   +02 22.9    4.429    4.471    85.8    13.1  19.7
2005 06 29    11 41.29   +01 41.8    4.581    4.477    77.7    12.8  19.8

Brian G. Marsden             (C) Copyright 2005 MPC           M.P.E.C. 2005-H31

Read MPEC 2005-H30 Read MPEC 2005-H32


Our Web policy. Index to the CBAT/MPC/ICQ pages.


Valid HTML 4.01!